BREEZE-M DEB [TANK]

Last updated on Sun Jul 20 2025 00:02:05 GMT+0000 (Coordinated Universal Time)

1 64469U 25131C 25200.23392769 .00005636 00000+0 14000-2 0 9997 2 64469 61.0916 268.9335 6900679 179.0200 184.0277 2.77114726 754

Satellite not in orbit

BREEZE-M DEB [TANK]